EHI
67 63 57 54 51 49 49 49 49 46 40 36 36 37 34 28 26 27 25 23 21 18 13 10 9 8 6 4 4 5 7 5 2 0 1 3 3 1 0 0 0 0 0
64 62 58 55 53 51 50 50 47 43 39 35 34 35 34 30 28 27 24 21 21 20 16 14 13 10 8 6 5 7 8 6 2 1 1 2 2 1 0 0 0 0 0
59 59 57 56 54 52 50 47 42 39 36 33 32 32 30 29 28 26 23 19 18 18 17 16 15 12 10 9 10 10 10 7 4 2 1 1 1 1 1 0 0 0 0
55 55 54 53 50 48 45 40 35 34 33 31 29 27 25 23 23 23 21 18 15 14 15 14 12 11 10 10 12 13 12 9 6 3 1 0 0 0 0 0 0 0 0
53 52 51 49 45 41 37 33 31 30 30 28 26 25 23 20 19 19 19 17 14 12 12 12 10 8 7 8 9 11 11 10 7 4 1 0 0 0 0 0 0 0 0
51 48 46 43 40 35 32 31 31 30 28 25 23 22 21 18 15 14 16 15 13 11 11 10 8 6 5 4 5 6 7 7 6 3 1 0 0 0 0 0 0 0 0
47 44 40 39 37 34 32 32 31 29 24 22 20 19 18 15 12 10 11 12 11 9 9 9 8 6 4 1 1 1 2 2 2 2 1 0 0 0 0 0 0 0 0
43 40 37 37 36 34 32 31 29 25 21 19 17 16 15 13 10 8 8 9 8 8 8 8 8 6 3 1 0 0 0 0 0 0 0 0 0 0 0 0 0 0 0
40 38 36 35 35 32 30 28 24 21 19 17 15 14 13 11 8 6 7 7 7 7 8 7 6 5 2 1 0 0 0 0 0 0 0 0 0 0 0 0 0 0 0
39 38 36 35 32 30 26 22 18 17 17 16 14 13 13 11 7 3 4 6 7 8 7 6 4 3 1 0 0 0 0 0 0 0 0 0 0 0 0 0 0 0 0
40 39 37 33 28 24 20 16 14 14 16 15 13 12 12 9 5 2 2 4 7 7 6 5 3 2 0 0 0 0 0 0 0 0 0 0 0 0 0 0 0 0 0
42 39 36 31 25 18 15 13 13 14 14 13 11 11 10 8 6 3 1 2 4 5 5 4 2 1 0 0 0 0 0 0 0 0 0 0 0 0 0 0 0 0 0
41 38 34 30 25 19 15 13 13 13 12 11 10 9 9 7 6 3 1 0 1 3 3 2 1 0 0 0 0 0 0 0 0 0 0 0 0 0 0 0 0 0 0
39 35 31 26 22 18 14 12 11 10 10 10 9 9 7 7 6 3 1 1 1 2 1 1 0 0 0 0 0 0 0 0 0 0 0 0 0 0 0 0 0 0 0
36 32 26 19 14 13 11 9 8 7 7 8 8 7 6 6 4 3 2 2 2 2 1 0 0 0 0 0 0 0 0 0 0 0 0 0 0 0 0 0 0 0 0
32 28 20 12 8 7 7 6 5 4 3 4 6 6 5 3 2 1 2 2 1 1 1 0 0 0 0 0 0 0 0 0 0 0 0 0 0 0 0 0 0 0 0
27 23 16 9 6 5 5 6 6 4 3 2 3 3 3 1 0 0 1 1 0 0 1 1 1 0 0 0 0 0 0 0 0 0 0 0 0 0 0 0 0 0 0
22 18 14 10 8 7 6 6 7 6 4 2 2 1 1 0 0 0 0 0 0 1 2 2 1 0 0 0 0 0 0 0 0 0 0 0 0 0 0 0 0 0 0
19 16 12 11 11 10 8 7 6 6 4 2 2 2 1 0 0 0 0 0 0 1 2 3 2 1 0 0 0 0 0 0 0 0 0 0 0 0 0 0 0 0 0
18 14 10 10 11 10 9 8 6 4 3 1 1 2 1 0 0 0 0 0 1 1 2 3 3 2 1 0 0 0 0 0 0 0 0 0 0 0 0 0 0 0 0
16 12 9 9 9 9 9 8 6 4 3 2 1 1 1 0 0 1 1 1 2 2 2 3 3 3 1 1 0 0 0 0 0 0 0 0 0 0 0 0 0 0 0
16 13 9 7 8 8 7 6 4 3 3 2 1 0 0 0 0 1 2 3 3 2 3 3 3 3 2 2 1 0 0 0 0 0 0 0 0 0 0 0 0 0 0
13 11 8 7 7 6 5 4 3 3 3 2 1 0 0 0 0 1 2 2 2 2 2 2 2 2 3 3 1 0 0 0 0 0 0 0 0 0 0 0 0 0 0
9 8 7 6 6 5 4 3 3 3 3 1 0 0 0 0 0 0 1 1 1 1 1 1 1 1 2 2 1 0 0 0 0 0 0 0 0 0 0 0 0 0 0
7 7 7 6 4 4 3 3 3 3 2 1 0 0 0 0 0 0 0 0 0 0 0 0 0 0 1 1 1 0 0 0 0 0 0 0 0 0 0 0 0 0 0
7 8 8 6 4 3 3 3 3 3 1 0 0 0 0 0 0 0 0 0 0 0 0 0 0 0 0 0 0 0 0 0 0 0 0 0 0 0 0 0 0 0 0
Wind_Speed
6 5 3 3 3 2 1 1 1 1 1 1 1 0 1 1 1 1 1 1 1 1 0 1 1 1 1 1 1 1 1 2 2 1 2 2 3 4 4 3 4 4 5
6 5 3 3 3 2 2 1 2 1 1 1 1 1 1 1 1 1 1 1 1 1 1 1 1 1 1 1 1 1 1 2 3 3 2 2 3 3 3 3 4 4 5
6 5 4 3 3 2 2 2 1 2 1 2 2 1 1 1 1 1 1 1 1 1 1 1 2 2 1 1 1 1 1 2 3 4 3 2 2 2 2 4 5 3 5
6 5 5 3 3 2 2 2 2 2 2 2 2 2 2 2 2 2 2 1 2 2 2 2 3 2 1 0 1 1 2 2 3 3 3 2 2 2 2 3 3 2 3
6 5 5 4 3 3 3 3 3 3 3 3 3 3 3 2 3 3 2 2 3 3 3 3 4 5 6 3 3 2 2 2 3 3 3 2 2 2 1 1 2 2 2
6 5 5 5 4 4 4 4 4 4 4 4 4 4 4 4 7 6 4 3 3 3 3 2 3 4 5 6 7 6 5 3 3 3 3 3 2 1 1 1 2 2 2
6 5 5 5 5 4 4 5 5 5 5 5 5 5 6 7 8 7 6 3 3 3 3 2 3 5 5 4 6 8 7 7 5 3 4 3 2 1 1 1 1 2 1
6 5 5 5 5 5 5 5 4 4 4 4 5 5 5 6 8 8 6 5 5 5 5 5 5 5 5 5 5 6 6 5 4 3 3 3 3 1 0 1 2 2 2
6 5 5 5 5 5 5 4 4 4 5 5 4 5 5 5 8 7 5 4 5 5 6 6 5 5 7 6 4 5 5 4 5 6 4 4 4 3 2 2 1 2 2
6 6 6 5 5 5 5 4 4 4 5 5 5 5 5 5 7 8 6 3 4 4 5 6 8 7 7 6 4 4 4 3 3 4 3 2 3 3 3 2 1 1 1
7 6 6 6 5 6 5 4 4 4 5 5 5 5 5 5 6 9 8 3 2 3 4 4 4 7 7 6 4 4 3 2 2 3 3 3 3 2 2 2 2 1 1
8 7 7 6 5 5 4 3 4 5 5 5 5 4 4 4 5 6 8 7 4 4 4 4 4 5 6 5 4 4 3 2 1 2 3 2 2 2 1 2 1 1 1
8 7 7 6 5 5 4 4 3 3 4 4 4 4 4 4 4 6 7 8 7 5 4 6 5 4 3 2 3 2 2 1 1 2 2 2 2 2 2 1 1 0 1
8 7 6 6 6 5 3 3 3 2 2 3 4 4 4 4 3 2 3 4 6 5 4 4 3 1 0 1 1 1 0 1 1 1 2 2 1 1 1 1 0 0 0
8 7 7 6 6 5 4 4 3 4 2 2 3 3 4 4 2 2 2 2 2 2 2 2 2 2 2 1 1 1 0 1 1 1 1 1 1 1 1 1 1 1 1
7 6 6 6 5 5 6 6 9 7 8 9 7 5 5 5 6 5 4 4 3 3 1 1 1 1 1 1 1 1 1 1 1 1 1 1 0 0 0 0 0 1 1
6 6 5 5 6 6 6 6 5 5 7 8 7 7 7 7 6 5 4 3 1 1 0 0 1 1 1 1 1 1 1 1 1 1 1 1 1 1 1 0 0 1 1
6 6 5 5 6 6 6 6 6 6 5 4 3 4 6 6 5 4 3 2 1 1 1 0 0 1 1 1 1 2 1 1 1 1 1 1 1 1 1 1 1 1 2
6 5 4 5 5 5 6 6 6 6 6 6 5 4 4 4 3 2 2 2 2 2 1 1 1 1 1 2 2 1 1 1 1 1 1 2 2 2 2 1 1 1 2
4 5 4 4 5 5 5 5 5 5 6 6 6 6 6 5 4 4 3 3 2 2 1 1 1 1 2 2 1 1 1 1 1 1 1 1 2 2 2 2 2 2 2
5 5 5 5 4 5 4 4 4 4 4 5 5 6 7 5 4 5 4 3 2 2 1 1 1 1 1 1 1 0 0 1 1 1 2 2 2 2 2 2 2 2 2
5 5 5 4 4 4 4 3 4 4 4 5 5 6 7 4 3 3 3 3 2 2 2 1 1 1 1 1 1 0 0 1 1 1 2 2 2 2 3 2 2 2 2
5 6 5 4 3 4 4 3 3 3 4 4 4 5 5 3 2 2 2 2 2 2 2 1 0 1 1 2 2 2 2 2 1 2 2 3 3 3 2 2 3 3 3
5 5 5 5 4 4 4 4 4 4 4 4 4 4 4 3 2 2 1 1 1 2 2 2 1 1 3 2 2 2 2 2 2 2 3 4 4 3 2 2 3 3 3
4 4 4 4 4 3 3 3 3 3 3 3 3 3 3 2 2 2 1 2 1 1 1 1 1 2 4 3 3 3 2 3 2 3 3 3 4 3 3 3 3 3 3
3 3 3 3 3 3 3 3 3 2 2 2 2 2 2 2 2 2 2 2 2 2 2 2 2 3 4 3 4 4 3 2 1 2 3 3 4 3 3 3 5 4 4
Wind_Direction
165 166 168 163 161 163 165 146 134 108 84 68 87 107 136 145 152 151 153 150 144 107 51 56 34 31 17 11 44 81 103 124 136 129 95 87 86 93 99 102 103 94 92
148 145 147 137 142 150 144 124 115 113 98 80 68 79 102 114 134 144 168 151 129 127 93 50 34 59 52 37 40 87 111 120 133 134 121 99 91 107 118 107 98 95 92
140 139 133 127 121 127 135 128 114 107 93 73 62 59 46 45 88 108 119 118 109 88 75 68 60 59 57 66 72 77 106 116 117 127 128 115 96 96 100 88 86 91 100
136 137 130 125 119 125 123 115 106 100 91 78 65 59 57 42 51 67 72 82 85 74 66 67 62 65 52 53 96 85 99 110 120 119 118 108 94 86 88 94 92 88 94
131 130 131 128 117 109 106 106 104 96 90 73 62 53 47 51 46 42 68 80 74 71 69 75 78 79 72 65 65 61 87 96 105 106 103 89 79 88 89 112 112 105 88
134 134 133 131 124 114 110 106 98 91 81 71 66 61 54 46 34 42 55 77 81 80 76 76 84 73 78 80 78 73 73 88 96 101 102 103 94 76 67 112 116 114 99
133 133 133 133 128 123 118 107 98 91 88 79 73 69 63 44 34 38 48 67 73 68 67 58 56 61 69 79 85 78 65 66 80 98 107 111 121 126 114 101 114 112 104
136 132 128 125 120 115 111 105 103 101 95 86 77 73 69 48 35 38 49 76 68 59 54 58 60 52 49 61 80 77 69 58 64 86 101 107 111 114 141 130 133 117 103
138 133 126 122 122 121 117 113 109 107 101 96 89 80 72 51 36 36 42 91 82 69 59 54 59 62 46 62 89 98 93 78 69 85 101 111 110 101 80 79 87 114 117
135 130 125 122 124 121 117 114 113 112 110 106 93 83 76 61 42 37 30 85 95 90 79 65 57 57 50 56 82 87 87 85 88 93 98 106 124 119 103 80 66 104 100
130 123 122 121 120 118 116 116 124 125 117 110 106 93 81 68 58 48 43 51 80 97 93 80 60 54 50 43 61 74 81 78 96 102 104 103 93 84 78 73 58 67 84
129 127 125 125 127 123 123 125 136 135 129 123 115 106 95 81 62 59 55 53 56 83 88 89 85 72 59 45 56 61 60 62 94 108 104 96 96 94 90 90 82 69 128
134 131 130 128 118 121 126 127 130 140 137 136 137 130 119 110 92 76 67 64 64 76 81 101 110 98 71 68 77 57 53 43 59 88 93 95 98 103 106 98 83 43 14
139 138 135 131 129 124 122 123 118 120 138 143 141 132 125 121 113 111 114 102 96 97 102 114 131 136 66 19 70 90 90 52 47 67 83 98 107 107 103 94 115 183 90
144 144 141 136 129 113 93 61 75 60 64 111 111 120 128 125 109 111 121 112 111 102 125 173 174 160 145 140 132 115 93 85 70 64 70 74 87 93 93 76 12 341 3
151 154 153 148 144 142 130 100 57 73 77 80 85 97 98 109 124 104 94 90 91 97 136 175 155 154 143 136 138 128 96 59 30 52 74 67 31 71 162 110 72 336 340
155 158 158 158 158 160 151 144 129 90 70 70 81 98 115 129 121 110 97 80 85 115 216 213 111 102 102 100 90 84 93 71 31 25 37 33 349 331 353 17 31 317 318
166 164 169 169 169 166 163 162 157 153 145 124 96 112 131 139 141 138 127 111 158 187 219 189 113 97 92 72 66 53 56 71 44 11 10 6 351 343 357 345 348 341 327
175 171 174 167 168 166 165 168 164 162 157 149 144 137 152 153 157 188 194 220 196 187 209 168 114 93 87 79 67 54 41 50 52 7 7 349 342 345 348 335 330 335 312
164 163 171 174 174 173 174 175 170 166 163 160 161 155 160 175 179 184 201 225 221 197 169 125 107 95 98 98 93 34 29 59 33 339 6 341 331 331 322 313 309 298 284
167 164 179 189 181 173 169 170 169 169 163 156 152 151 164 186 186 179 185 206 212 183 143 137 149 156 129 128 134 174 345 45 58 3 348 329 326 324 310 304 305 311 313
165 169 180 181 170 161 162 172 170 163 158 153 149 153 171 199 192 175 184 192 188 167 152 155 149 123 110 114 99 76 90 49 36 4 332 318 308 307 307 314 326 330 326
173 173 175 171 165 152 173 176 160 152 150 152 156 158 172 195 195 180 186 179 152 147 134 129 133 123 110 97 82 56 37 28 14 8 331 318 314 307 309 321 323 325 333
176 175 172 166 169 173 171 165 162 161 167 170 170 167 169 178 191 174 160 134 139 148 153 161 170 124 108 112 106 85 54 36 10 358 336 312 305 311 327 330 322 325 328
173 170 164 159 164 167 164 161 161 160 164 165 167 161 159 169 181 163 149 143 140 150 170 164 153 137 128 122 111 107 97 79 57 2 328 307 310 324 332 328 324 320 318
165 159 158 155 156 157 158 158 157 156 156 155 153 154 165 176 175 167 167 169 186 180 180 164 151 143 142 150 147 143 140 131 84 1 325 307 308 324 338 324 316 312 311